GW2805 Weather Reports


time (UTC)temp
F
wind
direction
speed
knots
gust
knots
rain 1hr
in
rain 24hr
in
rain mn
in
humidity
%
barometer
mb
20260506021327 61 0 2.6 4.3 0.00 0.01 0.01 67 1016.1
20260506020827 62 0 1.7 4.3 0.00 0.01 0.01 66 1016.0
20260506020606 62 0 0.9 4.3 0.00 0.01 0.01 66 1016.0
20260506015826 62 0 1.7 2.6 0.00 0.01 0.01 66 1016.0
20260506015327 62 0 0.9 5.2 0.00 0.01 0.01 66 1016.0
20260506015132 62 0 1.7 4.3 0.00 0.01 0.01 66 1016.0
20260506015127 62 0 1.7 5.2 0.00 0.01 0.01 66 1015.9
20260506013824 62 0 2.6 5.2 0.00 0.01 0.01 65 1016.0
20260506013324 62 0 1.7 5.2 0.00 0.01 0.01 65 1016.0
20260506012824 62 0 2.6 5.2 0.00 0.01 0.01 65 1016.0
20260506012325 62 0 1.7 5.2 0.00 0.01 0.01 64 1016.0
20260506011824 63 0 1.7 4.3 0.00 0.01 0.01 65 1016.0
20260506011324 63 0 1.7 4.3 0.00 0.01 0.01 65 1016.0
20260506010824 63 0 2.6 5.2 0.00 0.01 0.01 65 1015.9
20260506010324 62 0 1.7 5.2 0.00 0.01 0.01 66 1015.9
20260506005825 62 0 2.6 4.3 0.00 0.01 0.01 66 1015.9
20260506005603 62 0 1.7 3.5 0.00 0.01 0.01 66 1015.9
20260506004824 62 0 1.7 6.1 0.00 0.01 0.01 66 1015.9
20260506004324 62 0 2.6 7.8 0.00 0.01 0.01 66 1016.0
20260506003826 62 0 0.9 8.7 0.00 0.01 0.01 67 1015.9
20260506003325 62 0 4.3 8.7 0.00 0.01 0.01 66 1015.8
20260506002824 62 0 2.6 9.6 0.00 0.01 0.01 66 1015.8
20260506002323 62 0 3.5 9.6 0.00 0.01 0.01 67 1015.7
20260506001824 62 0 3.5 9.6 0.00 0.01 0.01 67 1015.7
20260506001323 62 0 5.2 12.2 0.00 0.01 0.01 66 1015.7
20260506000824 62 0 3.5 12.2 0.00 0.01 0.01 67 1015.7
20260506000323 63 0 3.5 7.8 0.00 0.01 0.01 66 1015.6
20260505235823 63 0 2.6 8.7 0.00 0.01 0.01 66 1015.6
20260505235323 63 0 3.5 11.3 0.00 0.01 0.01 66 1015.6
20260505234823 63 0 3.5 11.3 0.00 0.01 0.01 66 1015.6
20260505234324 63 0 3.5 9.6 0.00 0.01 0.01 66 1015.6
20260505233823 63 0 3.5 9.6 0.00 0.01 0.01 65 1015.7
20260505233323 64 0 2.6 6.1 0.00 0.01 0.01 64 1015.7
20260505232823 64 0 1.7 6.1 0.00 0.01 0.01 63 1015.7
20260505232601 64 0 1.7 6.1 0.00 0.01 0.01 64 1015.6
20260505231822 64 0 3.5 8.7 0.00 0.01 0.01 64 1015.7
20260505231324 64 0 2.6 8.7 0.00 0.01 0.01 64 1015.7
20260505230822 64 0 2.6 8.7 0.00 0.01 0.01 63 1015.7
20260505230322 64 0 3.5 9.6 0.00 0.01 0.01 64 1015.6
20260505230126 64 0 3.5 9.6 0.00 0.01 0.01 64 1015.6
20260505230120 64 0 1.7 9.6 0.00 0.01 0.01 64 1015.6
20260505224822 65 0 3.5 9.6 0.00 0.01 0.01 62 1015.6
20260505224600 65 0 2.6 6.1 0.00 0.01 0.01 62 1015.7
20260505224059 65 0 2.6 6.1 0.00 0.01 0.01 62 1015.7
20260505223322 65 0 2.6 5.2 0.00 0.01 0.01 62 1015.7
20260505222820 65 0 1.7 6.1 0.00 0.01 0.01 62 1015.7
20260505222321 65 0 1.7 6.1 0.00 0.01 0.01 62 1015.7
20260505221821 65 0 1.7 5.2 0.00 0.01 0.01 62 1015.8
20260505221322 65 0 1.7 5.2 0.00 0.01 0.01 62 1015.8
20260505220821 65 0 2.6 6.1 0.00 0.01 0.01 62 1015.8
20260505220320 64 0 2.6 6.1 0.00 0.01 0.01 63 1015.8
20260505215820 64 0 3.5 6.1 0.00 0.01 0.01 62 1015.8
20260505215321 64 0 1.7 7.8 0.00 0.01 0.01 63 1015.8
20260505214820 64 0 2.6 7.8 0.00 0.01 0.01 63 1015.9
20260505214319 64 0 3.5 7.8 0.00 0.01 0.01 63 1016.0
20260505213820 64 0 3.5 7.8 0.00 0.01 0.01 62 1016.0
20260505213320 63 0 3.5 7.8 0.00 0.01 0.01 63 1016.0
20260505212820 63 0 4.3 8.7 0.00 0.01 0.01 63 1016.1
20260505212321 63 0 2.6 8.7 0.00 0.01 0.01 63 1016.1
20260505211833 64 0 1.7 7.8 0.00 0.01 0.01 62 1016.0
20260505211827 64 0 2.6 6.1 0.00 0.01 0.01 63 1016.1
20260505211727 64 0 3.5 8.7 0.00 0.01 0.01 62 1016.1
20260505211628 64 0 2.6 8.7 0.00 0.01 0.01 63 1016.1
20260505211527 64 0 2.6 6.1 0.00 0.01 0.01 62 1016.2
20260505205819 64 0 1.7 7.8 0.00 0.01 0.01 62 1016.0
20260505205318 64 0 3.5 7.8 0.00 0.01 0.01 62 1016.0
20260505204818 64 0 2.6 5.2 0.00 0.01 0.01 62 1015.9
20260505204556 64 0 2.6 10.4 0.00 0.01 0.01 61 1015.9
20260505204058 65 0 2.6 10.4 0.00 0.01 0.01 62 1015.9
20260505203556 65 0 2.6 8.7 0.00 0.01 0.01 62 1015.9
20260505202818 65 0 2.6 8.7 0.00 0.01 0.01 62 1015.9
20260505202556 65 0 1.7 6.1 0.00 0.01 0.01 62 1015.9
20260505201819 65 0 3.5 6.1 0.00 0.01 0.01 62 1016.0
20260505201319 64 0 3.5 7.8 0.00 0.01 0.01 63 1016.1
20260505200817 64 0 2.6 7.8 0.00 0.01 0.01 63 1016.1
20260505200319 64 0 0.9 7.8 0.00 0.01 0.01 64 1016.1
20260505195818 64 0 2.6 6.1 0.00 0.01 0.01 64 1016.1
20260505195316 64 0 2.6 6.1 0.00 0.01 0.01 64 1016.2
20260505194817 63 0 2.6 6.1 0.00 0.01 0.01 64 1016.2
20260505194316 62 0 1.7 5.2 0.00 0.01 0.01 66 1016.3
20260505193818 62 0 1.7 6.1 0.00 0.01 0.01 68 1016.3
20260505193316 62 0 2.6 7.8 0.00 0.01 0.01 67 1016.3
20260505192816 62 0 2.6 7.8 0.00 0.01 0.01 67 1016.6
20260505192316 62 0 1.7 4.3 0.00 0.01 0.01 66 1016.5
20260505191816 62 0 1.7 5.2 0.00 0.01 0.01 69 1016.5
20260505191316 61 0 1.7 5.2 0.00 0.01 0.01 70 1016.5
20260505190816 61 0 2.6 4.3 0.00 0.01 0.01 70 1016.5
20260505190315 60 0 1.7 6.1 0.00 0.01 0.01 72 1016.3
20260505185817 60 0 2.6 6.1 0.00 0.01 0.01 73 1016.2
20260505185315 60 0 2.6 6.1 0.00 0.01 0.01 73 1016.3
20260505184816 60 0 2.6 6.1 0.00 0.01 0.01 72 1016.2
20260505184316 60 0 1.7 7.8 0.00 0.01 0.01 73 1016.2
20260505183812 60 0 1.7 7.8 0.00 0.01 0.01 73 1016.2
20260505183313 60 0 2.6 6.1 0.00 0.01 0.01 73 1016.3
20260505182815 60 0 2.6 6.1 0.00 0.01 0.01 74 1016.3
20260505182315 59 0 1.7 6.1 0.00 0.01 0.01 74 1016.5
20260505181816 59 0 2.6 6.1 0.00 0.01 0.01 74 1016.5
20260505181554 59 0 1.7 5.2 0.00 0.01 0.01 76 1016.3
20260505180815 59 0 0.9 3.5 0.00 0.01 0.01 76 1016.2
20260505180314 58 0 1.7 4.3 0.00 0.01 0.01 76 1016.2
20260505175815 58 0 2.6 5.2 0.00 0.01 0.01 76 1016.2
20260505175313 58 0 2.6 5.2 0.00 0.01 0.01 76 1016.2
20260505174812 58 0 1.7 6.1 0.00 0.01 0.01 77 1016.1
20260505174312 58 0 0.9 6.1 0.00 0.01 0.01 77 1016.0
20260505173813 58 0 1.7 5.2 0.00 0.01 0.01 78 1015.9
20260505173313 58 0 1.7 3.5 0.00 0.01 0.01 79 1015.9
20260505173052 57 0 0.9 4.3 0.00 0.01 0.01 80 1015.9
20260505172312 57 0 1.7 4.3 0.00 0.01 0.01 80 1016.0
20260505171812 57 0 0.9 5.2 0.00 0.01 0.01 80 1015.9
20260505171312 57 0 1.7 5.2 0.00 0.01 0.01 80 1015.9
20260505170812 57 0 1.7 4.3 0.00 0.01 0.01 80 1015.8
20260505170312 57 0 1.7 3.5 0.00 0.01 0.01 80 1015.9
20260505165813 57 0 0.0 1.7 0.00 0.01 0.01 81 1015.8
20260505165312 56 0 0.0 0.0 0.00 0.01 0.01 81 1015.8
20260505164812 56 0 0.0 0.9 0.00 0.01 0.01 81 1015.8
20260505164313 56 0 0.0 0.9 0.00 0.01 0.01 81 1015.8
20260505163813 56 0 0.0 0.9 0.00 0.01 0.01 82 1015.7
20260505163312 56 0 0.0 0.9 0.00 0.01 0.01 82 1015.8
20260505162812 56 0 0.0 1.7 0.00 0.01 0.01 82 1015.7
20260505162312 56 0 0.9 1.7 0.00 0.01 0.01 82 1015.7
20260505161813 56 0 0.0 0.9 0.00 0.01 0.01 82 1015.6
20260505161312 56 0 0.0 0.9 0.00 0.01 0.01 83 1015.6
20260505160811 56 0 0.0 0.9 0.00 0.01 0.01 83 1015.6
20260505160552 56 0 0.0 0.9 0.00 0.01 0.01 83 1015.6
20260505153309 55 0 0.9 1.7 0.00 0.01 0.01 84 1015.4
20260505152809 54 0 0.0 0.0 0.00 0.01 0.01 84 1015.3
20260505152309 54 0 0.0 0.0 0.00 0.01 0.01 85 1015.3
20260505151809 54 0 0.0 0.0 0.00 0.01 0.01 85 1015.3
20260505151309 54 0 0.0 0.0 0.00 0.01 0.01 85 1015.3
20260505150808 54 0 0.0 0.0 0.00 0.01 0.01 85 1015.2
20260505150308 54 0 0.0 0.9 0.00 0.01 0.01 85 1015.3
20260505140309 52 0 0.0 1.7 0.00 0.01 0.01 86 1015.0
20260505130306 52 0 0.0 2.6 0.00 0.01 0.01 85 1014.6
20260505124807 52 0 0.9 1.7 0.00 0.01 0.01 85 1015.0
20260505124306 52 0 0.9 1.7 0.01 0.01 0.01 85 1015.0
20260505123807 52 0 0.9 1.7 0.01 0.01 0.01 85 1014.9
20260505123306 52 0 0.0 0.9 0.01 0.01 0.01 85 1015.0
20260505123044 52 0 0.0 0.0 0.01 0.01 0.01 84 1015.0
20260505122306 52 0 0.0 0.9 0.01 0.01 0.01 84 1014.8
20260505121806 52 0 0.0 1.7 0.01 0.01 0.01 85 1014.8
20260505121546 52 0 0.0 1.7 0.01 0.01 0.01 84 1014.7
20260505120805 52 0 0.9 1.7 0.01 0.01 0.01 84 1014.6
20260505120304 52 0 0.9 1.7 0.01 0.01 0.01 84 1014.6
20260505120108 52 0 0.0 0.9 0.01 0.00 0.01 83 1014.9
20260505115047 52 0 0.0 2.6 0.01 0.00 0.01 84 1014.9
20260505114542 53 0 0.0 2.6 0.00 0.00 0.00 84 1014.9
20260505113803 53 0 1.7 2.6 0.00 0.00 0.00 83 1014.9
20260505113304 53 0 1.7 1.7 0.00 0.00 0.00 83 1014.9
20260505112803 53 0 0.9 1.7 0.00 0.00 0.00 83 1015.0
20260505112328 53 0 0.0 0.9 0.00 0.00 0.00 83 1015.1
20260505112318 53 0 0.0 0.9 0.00 0.00 0.00 83 1015.0
20260505111303 53 0 0.0 0.9 0.00 0.00 0.00 83 1015.0
20260505110803 53 0 0.9 0.9 0.00 0.00 0.00 82 1014.9
20260505110303 53 0 0.0 1.7 0.00 0.00 0.00 83 1015.0
20260505102042 53 0 0.0 1.7 0.00 0.00 0.00 79 1014.9
20260505101303 53 0 0.0 1.7 0.00 0.00 0.00 78 1014.9
20260505100803 54 0 0.9 1.7 0.00 0.00 0.00 77 1015.0
20260505100303 54 0 0.0 0.9 0.00 0.00 0.00 76 1014.9
20260505095815 54 0 0.0 3.5 0.00 0.00 0.00 75 1015.0
20260505095305 54 0 0.9 3.5 0.00 0.00 0.00 75 1015.0
20260505095045 54 0 0.0 2.6 0.00 0.00 0.00 75 1015.0
20260505094304 53 0 0.9 2.6 0.00 0.00 0.00 75 1015.0
20260505093803 53 0 0.9 2.6 0.00 0.00 0.00 75 1015.3
20260505093325 54 0 0.0 0.0 0.00 0.00 0.00 75 1015.2
20260505093318 53 0 0.9 1.7 0.00 0.00 0.00 75 1015.3
20260505092304 54 0 0.0 1.7 0.00 0.00 0.00 75 1015.2
20260505091802 53 0 0.0 1.7 0.00 0.00 0.00 75 1015.3
20260505091303 54 0 0.0 1.7 0.00 0.00 0.00 75 1015.4
20260505091040 53 0 0.0 1.7 0.00 0.00 0.00 75 1015.4
20260505090324 54 0 0.0 0.9 0.00 0.00 0.00 74 1015.6
20260505090316 54 0 0.9 0.9 0.00 0.00 0.00 74 1015.5
20260505085304 54 0 0.0 0.9 0.00 0.00 0.00 74 1015.5
20260505084800 54 0 0.0 0.9 0.00 0.00 0.00 74 1015.6
20260505084300 54 0 0.0 0.9 0.00 0.00 0.00 74 1015.6
20260505083801 53 0 0.0 0.9 0.00 0.00 0.00 74 1015.5
20260505083300 54 0 0.0 3.5 0.00 0.00 0.00 74 1015.6
20260505082801 54 0 0.9 3.5 0.00 0.00 0.00 74 1015.7
20260505082300 54 0 1.7 2.6 0.00 0.00 0.00 74 1015.6
20260505081800 54 0 0.9 2.6 0.00 0.00 0.00 74 1015.8
20260505081300 54 0 0.9 2.6 0.00 0.00 0.00 73 1015.7
20260505080800 54 0 0.9 2.6 0.00 0.00 0.00 73 1015.8
20260505080259 54 0 0.9 3.5 0.00 0.00 0.00 73 1015.9
20260505075759 54 0 0.9 3.5 0.00 0.00 0.00 73 1015.9
20260505075538 54 0 1.7 6.1 0.00 0.00 0.00 73 1015.9
20260505074757 54 0 1.7 6.1 0.00 0.00 0.00 73 1016.0
20260505074537 55 0 0.9 1.7 0.00 0.00 0.00 73 1016.0
20260505073757 55 0 0.0 2.6 0.00 0.00 0.00 73 1016.1
20260505073257 55 0 0.9 2.6 0.00 0.00 0.00 73 1016.0
20260505072757 55 0 0.9 2.6 0.00 0.00 0.00 73 1016.1
20260505072534 55 0 0.9 2.6 0.00 0.00 0.00 72 1016.0
20260505071757 55 0 1.7 3.5 0.00 0.00 0.00 72 1015.9
20260505071256 55 0 0.9 3.5 0.00 0.00 0.00 72 1015.9
20260505070757 55 0 0.0 2.6 0.00 0.00 0.00 72 1015.8
20260505070539 55 0 0.9 2.6 0.00 0.00 0.00 72 1015.7
20260505065757 55 0 0.9 2.6 0.00 0.00 0.00 73 1015.7
20260505065256 55 0 1.7 3.5 0.00 0.00 0.00 73 1015.7
20260505064757 55 0 0.0 3.5 0.00 0.00 0.00 72 1015.7
20260505064538 55 0 1.7 2.6 0.00 0.00 0.00 73 1015.7
20260505063756 55 0 0.0 2.6 0.00 0.00 0.00 73 1015.6
20260505063256 55 0 0.9 2.6 0.00 0.00 0.00 73 1015.6
20260505062756 55 0 0.9 3.5 0.00 0.00 0.00 72 1015.6
20260505062255 55 0 2.6 4.3 0.00 0.00 0.00 72 1015.4
20260505061755 55 0 1.7 4.3 0.00 0.00 0.00 72 1015.4
20260505061255 55 0 0.9 5.2 0.00 0.00 0.00 73 1015.4
20260505060755 55 0 1.7 5.2 0.00 0.00 0.00 73 1015.4
20260505060256 55 0 0.9 3.5 0.00 0.00 0.00 74 1015.4
20260505055756 55 0 0.9 3.5 0.00 0.00 0.00 74 1015.4
20260505055255 55 0 0.9 2.6 0.00 0.00 0.00 74 1015.4
20260505054821 55 0 0.9 2.6 0.00 0.00 0.00 74 1015.4
20260505054811 55 0 1.7 2.6 0.00 0.00 0.00 74 1015.4
20260505053754 55 0 0.9 2.6 0.00 0.00 0.00 74 1015.6
20260505053255 55 0 1.7 3.5 0.00 0.00 0.00 74 1015.7
20260505053037 55 0 1.7 5.2 0.00 0.00 0.00 74 1015.7
20260505052255 56 0 1.7 5.2 0.00 0.00 0.00 74 1015.7
20260505051754 56 0 0.9 6.1 0.00 0.00 0.00 75 1015.7
20260505051254 56 0 0.9 8.7 0.00 0.00 0.00 75 1015.8
20260505051033 56 0 3.5 8.7 0.00 0.00 0.00 75 1015.9
20260505050254 56 0 3.5 8.7 0.00 0.00 0.00 75 1016.1
20260505041254 57 0 0.0 3.5 0.00 0.00 0.00 74 1015.4
20260505041032 57 0 0.0 3.5 0.00 0.00 0.00 74 1015.4
20260505040252 56 0 0.0 4.3 0.00 0.00 0.00 74 1015.4
20260505035750 57 0 1.7 4.3 0.00 0.00 0.00 74 1015.3
20260505035527 57 0 1.7 4.3 0.00 0.00 0.00 74 1015.4
20260505034741 57 0 1.7 4.3 0.00 0.00 0.00 74 1015.2
20260505034241 57 0 1.7 3.5 0.00 0.00 0.00 73 1015.2
20260505033742 57 0 0.9 4.3 0.00 0.00 0.00 73 1015.1
20260505033241 57 0 1.7 4.3 0.00 0.00 0.00 73 1015.0
20260505032737 57 0 1.7 4.3 0.00 0.00 0.00 72 1014.8
20260505032238 57 0 2.6 4.3 0.00 0.00 0.00 72 1014.7
20260505031738 57 0 1.7 4.3 0.00 0.00 0.00 71 1014.8
20260505031238 57 0 1.7 3.5 0.00 0.00 0.00 71 1014.8
20260505030736 58 0 0.0 2.6 0.00 0.00 0.00 70 1014.8
20260505030236 58 0 0.9 3.5 0.00 0.00 0.00 70 1014.8
20260505030016 58 0 1.7 4.3 0.00 0.00 0.00 69 1014.7
20260505025234 58 0 1.7 4.3 0.00 0.00 0.00 68 1014.8
20260505025016 58 0 0.9 4.3 0.00 0.00 0.00 68 1014.7
20260505024234 58 0 2.6 5.2 0.00 0.00 0.00 68 1014.7
20260505023733 58 0 1.7 5.2 0.00 0.00 0.00 67 1014.8
20260505023232 59 0 2.6 5.2 0.00 0.00 0.00 66 1014.7
20260505023011 59 0 2.6 5.2 0.00 0.00 0.00 65 1014.7
20260505022230 59 0 1.7 4.3 0.00 0.00 0.00 65 1014.6
20260505021730 59 0 1.7 6.1 0.00 0.00 0.00 64 1014.6